Theta_e
322 321 320 321 322 323 323 323 324 325 333 333 332 341 344 344 344 345 343 342 341 337 331 330 330 331 331 331 331 332 336 339 343 343 343 342 341 340 339 337 337 336 336 336
322 321 322 321 322 322 323 324 327 332 331 336 341 342 343 343 344 343 342 341 339 334 331 328 328 328 328 328 329 329 330 332 334 336 338 338 336 336 336 335 333 332 333 333
322 323 323 321 321 322 324 325 326 328 335 336 338 339 344 342 342 340 339 338 335 332 330 328 328 327 326 325 326 327 327 328 329 330 332 333 332 330 329 328 328 327 328 328
323 323 323 323 323 324 325 324 324 327 328 329 333 327 340 344 343 342 342 338 334 329 328 327 328 327 326 323 322 323 324 324 324 324 325 326 324 323 322 322 323 324 325 325
324 323 323 324 324 324 325 323 324 324 325 325 325 325 332 340 343 342 341 339 334 329 327 328 327 326 325 322 321 321 321 320 320 320 320 318 318 318 317 318 320 321 321 321
324 323 324 324 323 323 323 324 325 325 325 326 324 324 323 329 329 331 341 338 333 328 326 326 326 326 325 322 319 319 318 319 318 318 319 320 320 319 318 319 317 317 316 315
324 324 323 323 324 323 324 326 326 327 326 325 326 324 324 328 330 332 335 337 332 326 326 327 326 326 325 323 320 318 318 319 319 319 319 319 319 319 318 317 317 316 316 315
325 326 325 324 324 325 325 326 326 328 329 328 326 327 330 333 335 334 335 335 328 326 326 326 326 326 325 323 320 318 318 319 319 319 319 319 319 317 316 317 317 316 316 316
324 325 324 323 324 324 326 326 326 328 327 328 326 326 327 333 336 336 337 329 326 326 327 327 326 325 325 324 323 319 319 319 319 319 319 319 319 318 318 319 318 317 317 317
327 327 325 323 323 324 326 325 328 328 329 329 325 324 324 331 335 337 339 332 327 327 327 327 325 326 326 324 323 320 318 319 319 318 318 318 318 318 318 318 318 318 318 318
326 328 327 325 326 326 326 326 326 328 327 327 327 325 327 326 334 335 338 336 330 328 327 327 326 325 325 324 322 321 318 318 318 318 318 318 318 318 318 318 318 318 318 318
327 329 327 327 325 325 327 327 328 329 328 329 329 327 328 331 330 334 336 337 333 330 329 327 326 325 324 324 322 321 320 318 318 317 317 318 319 319 319 319 319 319 318 318
328 329 329 328 327 325 326 326 327 328 331 329 329 327 328 329 330 330 333 334 334 333 332 330 328 327 325 324 323 322 321 320 319 317 317 318 318 319 320 320 320 320 320 319
325 331 329 328 328 328 328 327 326 328 329 328 325 325 326 327 326 326 325 326 329 331 332 332 330 328 328 326 325 323 322 322 321 319 317 317 318 316 316 318 319 319 319 318
330 330 329 327 325 325 325 325 326 327 327 327 324 325 325 325 326 326 327 327 328 328 327 328 329 328 327 327 326 325 324 323 322 320 319 320 317 315 314 315 313 311 312 312
328 329 329 327 325 324 325 325 324 324 325 325 325 326 324 324 324 325 326 327 328 327 327 326 326 326 325 325 325 325 324 323 323 321 319 315 314 311 311 311 309 309 309 310
328 327 330 328 326 326 327 325 324 324 324 325 326 325 324 324 326 327 327 326 325 324 324 325 325 324 324 324 324 323 323 322 321 319 316 315 313 312 311 310 309 307 308 308
329 330 327 328 327 330 324 325 325 325 325 326 326 322 322 325 327 326 325 324 324 324 324 324 323 322 321 321 322 322 320 318 317 315 313 311 310 309 309 310 309 310 309 309
327 328 326 330 328 324 324 324 325 326 325 324 324 323 324 326 326 325 323 323 324 325 323 322 322 321 319 319 318 317 316 315 313 312 311 310 310 309 309 309 308 308 308 308
326 329 328 327 332 329 326 325 324 323 327 323 324 324 327 326 326 324 323 323 323 322 322 320 319 318 317 315 315 314 313 312 312 310 309 308 307 307 307 307 306 307 307 307
329 329 330 329 332 327 324 323 323 326 326 324 324 326 326 326 325 325 324 323 322 320 319 319 318 317 316 314 312 311 311 310 309 307 307 306 306 306 305 305 305 306 306 306
326 328 328 329 332 332 324 324 325 326 326 325 325 326 326 324 323 323 323 322 320 319 318 317 315 313 311 310 310 310 309 308 307 307 307 306 306 305 305 305 305 305 305 304
330 325 326 326 327 329 326 325 324 325 325 325 325 325 325 323 322 322 322 321 320 318 317 313 311 310 310 310 309 309 308 308 307 307 306 306 305 305 304 304 305 304 304 304
326 326 327 328 326 327 326 325 325 324 324 324 324 324 323 322 321 322 321 320 317 315 313 311 311 310 309 308 307 307 307 307 307 306 305 305 304 303 304 303 303 303 303 301
323 325 325 326 325 324 324 324 323 324 323 323 322 321 321 320 320 319 319 317 315 313 311 310 309 308 308 307 307 306 306 306 306 305 305 304 303 303 302 302 302 300 300 298
324 323 325 325 324 325 324 324 323 323 322 322 321 319 318 318 318 317 317 315 312 311 310 309 308 307 306 306 305 304 304 304 305 304 304 302 303 303 302 301 301 300 299 297
Wind_Speed
6 9 12 13 13 7 2 5 4 2 2 4 4 7 8 8 10 10 9 8 7 8 9 9 10 10 11 12 13 14 14 13 9 6 5 5 5 6 6 8 10 10 11 12
8 13 1 5 5 9 9 8 6 5 4 5 9 8 7 8 11 9 8 8 9 9 8 9 9 10 11 11 11 12 13 13 12 11 8 5 4 6 6 7 10 12 12 13
10 7 6 9 10 11 8 9 6 1 7 3 9 9 11 10 8 8 8 7 8 9 9 9 9 9 9 10 10 11 12 13 13 10 7 5 4 5 6 8 9 12 12 13
6 5 9 10 11 9 11 2 3 6 7 5 7 6 14 14 13 13 13 11 11 10 9 10 11 9 8 9 10 11 11 11 12 10 10 10 8 7 8 8 10 10 13 13
6 9 10 11 3 2 6 3 2 2 6 7 11 8 6 11 12 15 15 13 12 12 12 12 12 10 9 8 8 8 10 11 11 11 9 8 8 7 8 7 8 9 10 12
6 3 2 3 6 1 9 7 5 6 8 11 7 6 13 10 6 8 15 14 14 14 13 13 12 10 9 8 8 8 8 9 10 11 11 11 9 9 8 10 9 9 10 11
7 9 5 6 8 7 9 8 9 8 8 6 5 5 12 4 1 5 6 14 14 14 14 13 14 12 11 9 8 8 8 8 8 8 8 8 8 7 8 7 8 9 10 12
9 10 10 4 7 5 10 8 9 8 7 4 6 6 1 3 1 4 6 12 14 15 13 13 13 11 11 9 8 8 8 8 7 6 6 6 6 6 7 8 8 8 8 10
8 9 7 1 3 5 6 10 4 8 9 9 13 4 9 4 4 5 9 12 14 14 12 12 12 12 12 10 8 7 6 6 5 4 4 4 4 5 5 4 4 6 7 8
4 5 4 6 4 4 6 5 5 8 9 12 6 5 10 7 7 8 12 14 14 13 13 12 14 12 11 9 9 8 7 7 7 4 3 2 2 1 1 2 3 4 5 7
6 7 7 5 10 9 6 10 6 5 5 10 12 6 4 3 6 8 10 12 14 13 12 12 13 13 13 11 11 10 10 9 9 7 5 5 4 4 4 5 7 8 8 9
8 7 11 12 4 3 5 10 8 8 9 7 8 14 5 4 4 6 8 10 12 12 11 11 13 14 14 15 13 12 11 10 10 10 8 7 7 7 8 8 10 11 13 12
9 8 10 8 6 6 9 11 10 7 6 14 13 11 4 6 5 4 5 8 11 11 11 10 12 14 15 15 13 12 11 11 10 10 10 9 9 8 9 10 12 14 15 15
4 6 12 13 8 1 9 12 13 14 11 14 15 17 7 8 7 5 5 4 5 6 9 10 10 13 13 12 11 11 11 9 7 7 8 8 8 9 10 11 14 13 11 12
5 10 12 14 6 6 9 11 14 17 18 17 15 14 10 12 11 7 5 3 3 3 3 3 3 3 5 7 9 8 8 6 4 4 4 5 4 4 7 6 7 10 10 12
5 9 8 13 9 10 14 14 16 18 18 16 17 18 15 14 8 7 6 6 8 10 11 11 10 10 7 4 0 3 4 3 2 3 3 4 5 4 5 8 11 11 12 12
9 8 8 15 10 11 15 19 20 20 19 15 17 13 6 4 6 7 8 9 10 11 11 11 10 10 9 8 6 5 5 1 1 3 6 5 4 4 5 7 8 10 15 17
9 12 10 11 4 15 10 1 8 14 16 15 13 9 6 5 8 8 8 10 9 9 9 8 9 9 10 10 9 8 7 7 6 6 6 5 5 6 10 13 13 14 15 15
7 10 9 10 13 15 11 7 7 10 12 13 13 7 8 10 10 9 7 6 8 8 9 9 9 10 10 10 9 9 7 6 6 4 5 6 8 11 13 13 14 14 14 15
6 7 10 7 12 11 4 5 7 4 13 14 12 11 14 13 11 9 11 8 8 9 9 9 9 9 9 9 7 6 5 4 3 4 7 8 9 10 12 13 15 15 15 16
10 10 15 14 13 9 4 11 10 9 0 10 13 14 15 13 4 13 12 9 10 10 10 9 7 7 6 6 6 7 3 2 5 5 4 6 8 10 11 13 14 15 14 13
13 9 11 14 18 18 9 13 12 3 7 12 12 14 14 9 10 12 12 11 12 12 10 8 8 8 8 7 4 2 1 2 2 3 6 8 9 11 13 13 14 13 11 12
12 16 10 10 7 2 15 10 9 5 9 12 13 12 14 13 12 13 11 11 12 11 10 9 11 9 6 4 1 2 1 2 4 6 7 9 11 11 13 13 12 12 11 11
13 5 8 6 13 9 11 10 9 8 8 11 12 14 14 14 13 13 12 11 12 12 12 11 8 5 4 2 1 1 3 6 6 6 8 10 12 11 9 10 10 11 12 16
6 14 13 12 4 6 10 14 11 11 8 13 13 14 13 13 13 13 11 11 12 12 11 8 5 3 2 1 2 4 6 7 6 5 6 6 5 5 8 7 7 11 12 14
8 10 11 9 13 11 10 15 13 13 14 15 16 14 12 14 13 15 13 14 14 12 11 8 5 3 1 2 3 4 5 6 4 3 4 3 5 6 6 9 6 1 8 14
Wind_Direction
196 239 217 212 223 313 243 246 209 79 128 220 224 171 176 181 193 182 174 163 141 114 101 91 83 78 75 65 59 54 53 54 65 68 58 49 43 34 31 31 27 14 4 359
203 228 193 274 199 221 223 207 130 121 151 260 183 188 202 194 199 191 181 173 151 142 123 108 97 87 75 67 58 54 53 54 60 64 65 65 62 45 43 32 28 24 17 12
254 87 160 193 192 203 211 234 157 13 152 204 187 187 192 196 202 204 212 175 162 156 141 132 117 102 90 74 66 63 60 57 56 57 58 61 63 48 36 29 23 22 22 20
220 124 178 192 185 228 176 149 165 156 225 241 204 278 188 176 203 207 200 194 180 163 150 144 140 125 104 88 80 73 68 67 62 65 65 60 54 44 34 29 26 25 27 24
120 173 186 196 143 240 91 157 211 238 261 289 198 249 117 174 204 208 206 196 187 174 165 157 150 136 119 107 92 84 76 70 67 67 67 62 56 55 42 33 31 31 26 24
94 111 250 67 108 222 145 173 203 241 260 248 249 259 266 194 224 218 190 199 188 175 168 158 152 147 136 125 111 102 92 87 84 79 74 71 67 53 45 36 30 28 25 22
174 164 131 174 151 154 210 223 249 229 210 246 104 243 269 88 10 249 229 198 184 172 170 167 168 163 153 136 128 120 113 106 102 93 84 78 71 61 50 35 35 27 31 27
208 182 182 162 260 273 215 282 272 285 272 268 155 252 122 78 226 228 241 185 178 176 171 171 164 159 161 150 142 139 133 128 117 103 97 89 77 66 61 56 48 41 37 34
217 230 128 49 201 272 174 234 353 287 251 265 265 224 207 186 194 193 189 177 183 182 177 176 171 174 175 166 160 160 149 146 139 123 112 98 80 63 65 54 34 30 25 17
199 238 203 146 184 110 276 113 210 209 272 277 278 249 268 186 205 191 190 193 188 185 185 187 191 183 186 181 178 181 183 184 182 178 165 153 137 96 5 344 342 341 341 344
218 242 152 186 210 230 177 218 240 299 299 293 294 300 70 224 183 190 202 201 196 193 197 197 196 191 195 196 197 198 203 203 203 209 214 223 236 253 273 291 302 307 310 314
200 238 244 220 105 272 271 259 231 251 249 240 295 280 105 147 213 208 207 205 213 217 211 211 208 203 204 204 206 203 210 219 219 219 226 239 250 267 278 287 294 300 299 299
180 209 222 204 194 198 226 212 235 254 275 264 278 266 141 162 182 187 231 220 215 219 221 221 216 210 211 213 212 214 213 224 233 226 232 242 250 266 283 293 296 298 300 294
191 230 231 253 290 77 198 220 219 222 254 274 261 263 221 189 216 224 245 239 266 245 222 222 219 219 217 217 214 219 224 231 235 243 248 271 284 299 305 313 308 310 309 300
221 234 234 250 253 232 251 232 225 234 248 259 270 271 265 270 263 274 302 256 190 146 148 147 215 227 197 203 217 226 238 241 259 281 300 312 319 22 15 7 9 359 6 338
194 235 237 240 231 252 251 245 249 240 244 254 258 268 275 277 276 248 233 160 127 109 102 94 91 90 86 83 210 233 240 259 0 353 35 87 75 66 20 358 340 344 339 326
196 215 221 251 257 265 257 247 245 243 244 253 256 273 3 252 221 196 159 135 121 110 102 98 94 89 82 78 76 78 80 82 44 100 92 69 50 24 348 333 315 315 313 311
203 209 239 255 215 250 257 2 264 257 252 238 244 264 260 208 163 152 155 135 123 111 102 93 93 87 78 71 72 85 90 87 76 57 56 43 350 339 324 320 320 323 316 313
226 218 234 241 229 254 219 199 213 215 239 219 239 221 188 147 154 151 128 118 107 100 93 89 88 87 82 77 79 81 82 81 75 57 358 343 343 331 326 326 324 319 316 314
196 238 236 213 241 251 71 67 175 225 256 219 211 182 168 166 197 163 150 135 121 111 107 104 101 95 82 75 73 71 68 61 46 24 353 341 332 326 323 324 320 317 313 307
202 215 225 232 236 263 198 149 162 218 149 147 180 173 173 190 71 124 133 134 128 123 120 115 104 91 82 82 90 99 118 41 8 352 343 336 329 325 320 319 318 318 317 327
212 208 223 232 241 241 153 165 206 163 137 159 176 175 177 147 130 133 136 139 136 130 130 122 112 105 102 102 113 112 81 13 359 327 323 328 327 325 326 323 320 324 341 333
237 231 240 212 239 105 179 206 196 173 162 171 177 169 169 156 152 146 143 142 140 140 132 128 127 131 134 131 30 309 360 299 301 319 328 327 326 328 323 323 336 327 339 329
219 200 222 188 217 204 196 193 204 196 182 173 169 169 168 166 153 144 143 142 146 142 143 147 157 145 122 78 48 313 287 292 300 316 328 323 328 340 342 336 347 347 351 348
204 174 214 225 201 189 208 203 198 189 172 161 158 163 164 154 148 149 147 151 149 145 145 149 145 132 131 4 1 332 318 307 305 303 317 325 348 12 1 4 1 2 5 348
185 197 203 226 220 211 215 195 182 173 166 160 155 152 150 151 149 148 150 151 151 148 149 149 143 133 95 4 343 333 319 310 325 331 317 17 326 357 355 352 21 18 20 23